Find Starlink 35726

NORAD ID: 66280 Int'l Des: 2025-247 Owner: SPXS Country: US Constellation: starlink operational
LEOCIRCULAR

リアルタイム位置

3D地球を読み込み中...

Starlink 35726について

説明を読み込み中...

次回通過

Passes for default location (London). Set your location on the main map for personalized predictions.

高度履歴

Loading altitude history...

軌道要素

1 66280U 25247R 26107.13031913 .00015321 00000-0 52769-3 0 9993
2 66280 53.1631 12.5655 0001047 187.1561 172.9425 15.30239460 26920
Epoch: Apr 17, 2026 • Age: 14 hours

現在のステータス

高度 481.5 km
速度 7.62 km/s
衛星直下点 -20.87°S, 109.3°W
打ち上げ日 Oct 31, 2025
運用期間 0.4 years
タイプ internet

技術仕様

分類 Payload
質量 575.00 kg
乾燥質量 530.00 kg
総質量 575.00 kg
長さ 0.30 m
直径 4.10 m
スパン 29.00 m
形状 Box + pan
製造者 SPXS
バスタイプ Starlink V2MO
フェーズステータス In Orbit
所有者/国 SPXS/US

Most Searched